Voltar ao catálogo

STARLINK-31338

AtivoComunicaçõesVLEO
NORAD 59156·PAYLOAD·🇺🇸 United States

Lançado Mar 4, 2024 de Cape Canaveral Space Force Station

Loading…

Próximas Passagens (próximas 24 horas)

TLE

AtualizadoSource: CelesTrak SupGP

Época: Sep 14, 2026, 22:27 UTC

1 59156C 24044E   26257.93590278 -.00025373  00000+0 -91922-3 0  2579
2 59156  42.9991 121.9280 0001402 270.0947 168.7952 15.27583084    13

Acompanhe STARLINK-31338 em tempo real com AllMySat

Download on the App Store